Location: Calvera
(42.3882°N, 0.6137°E)
Time: 14:49:01
(UTC+00:00)

ADEOS - Pass Details

Date: 28 October 2020
Orbit: 793 x 793 km, 98.9° (Epoch: 24 November)

Event Time Altitude Azimuth Distance (km) Brightness Sun altitude
Rises 04:44:42 0° 12° (NNE) 3,304 6.9 -19.3°
Reaches altitude 10° 04:47:03 10° 11° (N) 2,371 6.1 -18.9°
Maximum altitude 04:52:16 75° 287° (WNW) 826 3.4 -17.9°
Drops below altitude 10° 04:57:27 10° 202° (SSW) 2,354 5.8 -17.0°
Sets 04:59:46 0° 201° (SSW) 3,280 6.6 -16.5°
